Weather reports worldwide

Advertisment
Pontevedra, Spain (8044): temperature & dewpoint: 10.01.2018 20:00:00 - 16.01.2018 20:00:00 (CET)Pontevedra, Spain (8044): wind speed: 10.01.2018 20:00:00 - 16.01.2018 20:00:00 (CET)Pontevedra, Spain (8044): wind direction: 10.01.2018 20:00:00 - 16.01.2018 20:00:00 (CET)Pontevedra, Spain (8044): reduced air pressure: 10.01.2018 20:00:00 - 16.01.2018 20:00:00 (CET)Pontevedra, Spain (8044): visibility: 10.01.2018 20:00:00 - 16.01.2018 20:00:00 (CET)Pontevedra, Spain (8044): precipitation: 10.01.2018 20:00:00 - 16.01.2018 20:00:00 (CET)
Date & Time tt [°C] td [°C] ff [km/h] ff [kn] dd ppp [hPa] vv [km] rr [mm]
16.01.2018 20:00:00 11,8 11,8 4 2 S 1028,5 0,3 0,4
16.01.2018 19:00:00 11,7 11,7 5 3 S 1028,0 1,0 -
16.01.2018 18:00:00 11,9 11,9 2 1 SSW 1027,8 1,9 0,0
16.01.2018 17:00:00 12,2 12,2 2 1 S 1027,6 4,4 0,0
16.01.2018 16:00:00 12,0 12,0 4 2 S 1028,2 1,0 -
16.01.2018 15:00:00 11,8 11,8 4 2 S 1028,7 0,7 0,0
16.01.2018 14:00:00 11,6 11,6 2 1 S 1029,2 1,4 0,2
16.01.2018 13:00:00 11,2 11,2 4 2 S 1029,6 0,4 -
16.01.2018 12:00:00 11,1 11,1 2 1 WNW 1030,0 5 0,2
16.01.2018 11:00:00 10,5 10,5 4 2 WNW 1029,6 1,5 0,0
16.01.2018 10:00:00 10,0 10,0 2 1 S 1029,5 1,5 -
16.01.2018 09:00:00 9,9 9,9 4 2 SE 1028,6 1,5 0,6
16.01.2018 08:00:00 9,8 9,8 2 1 N 1028,3 2,4 0,8
16.01.2018 07:00:00 9,7 9,7 0 0 N 1027,9 3,0 -
16.01.2018 06:00:00 9,5 9,5 2 1 NNE 1027,7 2,4 0,0
16.01.2018 05:00:00 9,3 9,3 2 1 NNW 1028,1 1,1 0,0
16.01.2018 04:00:00 9,2 9,2 2 1 NNE 1027,9 0,6 -
16.01.2018 03:00:00 9,1 9,1 4 2 NNE 1027,9 1,0 0,0
16.01.2018 02:00:00 9,0 9,0 2 1 N 1028,2 1,1 0,0
16.01.2018 01:00:00 8,8 8,8 2 1 NE 1028,6 1,0 -
16.01.2018 00:00:00 8,6 8,6 2 1 NE 1028,6 1,0 0,0
15.01.2018 23:00:00 8,5 8,5 2 1 NW 1028,5 0,5 0,0
15.01.2018 22:00:00 8,5 8,5 5 3 NW 1028,0 0,4 -
15.01.2018 21:00:00 8,4 8,4 2 1 ENE 1028,1 0,9 0,0
15.01.2018 20:00:00 8,3 8,3 4 2 S 1027,6 0,5 0,0
15.01.2018 19:00:00 8,3 8,3 4 2 S 1027,3 3,0 -
15.01.2018 18:00:00 8,3 8,3 4 2 NW 1027,0 2,5 0,0
15.01.2018 17:00:00 8,5 7,4 2 1 NE 1026,9 11 0,0
15.01.2018 16:00:00 8,3 6,9 2 1 N 1026,8 10 -
15.01.2018 15:00:00 8,3 6,4 4 2 N 1027,3 13 0,0
15.01.2018 14:00:00 7,8 5,9 2 1 W 1028,1 19 0,0
15.01.2018 13:00:00 6,9 5,4 4 2 WNW 1028,4 20 -
15.01.2018 12:00:00 5,6 4,1 4 2 N 1029,1 20 0,0
15.01.2018 11:00:00 4,2 3,5 2 1 SSE 1028,2 20 0,0
15.01.2018 10:00:00 3,1 2,5 2 1 ESE 1028,2 20 -
15.01.2018 09:00:00 2,6 1,9 2 1 SW 1027,9 20 0,0
15.01.2018 08:00:00 2,7 2,0 4 2 SW 1027,2 20 0,0
15.01.2018 07:00:00 2,6 1,9 9 5 NE 1026,8 20 -
15.01.2018 06:00:00 3,2 2,3 4 2 ENE 1026,3 20 0,0
15.01.2018 05:00:00 2,9 2,2 9 5 ENE 1026,1 20 0,0
15.01.2018 04:00:00 2,6 1,9 8 4 E 1026,1 20 -
15.01.2018 03:00:00 3,4 2,4 5 3 E 1025,6 20 0,0
15.01.2018 02:00:00 3,5 2,6 13 7 ENE 1025,6 20 0,0
15.01.2018 01:00:00 4,2 3,0 9 5 E 1025,9 20 -
15.01.2018 00:00:00 4,6 3,4 9 5 ENE 1026,1 20 0,0
14.01.2018 23:00:00 4,9 4,0 11 6 ENE 1025,5 20 0,0
14.01.2018 22:00:00 5,6 4,7 8 4 ENE 1024,2 20 -
14.01.2018 21:00:00 6,3 5,6 9 5 ENE 1023,7 20 0,0
14.01.2018 20:00:00 7,3 6,1 4 2 ENE 1022,9 16 0,0
14.01.2018 19:00:00 7,8 6,3 2 1 SE 1022,4 20 -
14.01.2018 18:00:00 9,0 5,9 4 2 W 1021,2 20 0,0
14.01.2018 17:00:00 9,5 5,5 2 1 W 1020,7 20 0,0
14.01.2018 16:00:00 9,7 6,4 2 1 S 1019,8 20 -
14.01.2018 15:00:00 9,7 5,9 2 1 S 1020,2 20 0,0
14.01.2018 14:00:00 9,6 6,7 4 2 S 1020,5 20 0,0
14.01.2018 13:00:00 9,1 6,9 4 2 S 1021,0 20 -
14.01.2018 12:00:00 6,7 6,4 2 1 SE 1021,2 20 0,0
14.01.2018 11:00:00 4,8 4,7 4 2 ENE 1020,8 20 0,0
14.01.2018 10:00:00 3,6 3,6 5 3 E 1020,4 20 -
14.01.2018 09:00:00 3,7 3,7 5 3 E 1020,0 19 0,0
14.01.2018 08:00:00 3,7 3,7 5 3 SE 1019,5 19 0,6
14.01.2018 07:00:00 3,3 3,3 5 3 NNW 1019,3 20 -
14.01.2018 06:00:00 3,6 3,5 5 3 ENE 1019,4 20 0,0
14.01.2018 05:00:00 4,1 4,1 5 3 NE 1019,6 20 0,0
14.01.2018 04:00:00 4,2 4,2 8 4 ENE 1019,2 20 -
14.01.2018 03:00:00 4,5 4,5 4 2 NE 1019,0 17 0,0
14.01.2018 02:00:00 5,5 5,4 4 2 NE 1019,0 16 0,0
14.01.2018 01:00:00 5,8 5,8 4 2 N 1019,3 19 -
14.01.2018 00:00:00 6,0 5,9 5 3 SE 1018,9 6 0,2
13.01.2018 23:00:00 6,8 6,5 5 3 N 1018,7 17 0,4
13.01.2018 22:00:00 7,0 6,7 4 2 NW 1018,3 12 -
13.01.2018 21:00:00 7,3 6,9 2 1 ESE 1017,7 11 0,0
13.01.2018 20:00:00 8,0 7,2 2 1 SE 1017,2 15 0,0
13.01.2018 19:00:00 8,4 7,6 2 1 S 1017,0 20 -
13.01.2018 18:00:00 8,7 7,8 4 2 SSE 1016,3 20 0,2
13.01.2018 17:00:00 9,3 8,2 4 2 S 1016,0 19 0,0
13.01.2018 16:00:00 9,4 8,2 4 2 S 1016,0 20 -
13.01.2018 15:00:00 9,0 7,4 5 3 SSE 1015,8 20 0,6
13.01.2018 14:00:00 9,8 8,7 2 1 S 1016,0 16 0,0
13.01.2018 13:00:00 9,1 7,9 2 1 W 1016,4 20 -
13.01.2018 12:00:00 8,1 8,1 4 2 SSE 1017,1 18 0,8
13.01.2018 11:00:00 8,4 8,4 5 3 E 1016,3 19 0,2
13.01.2018 10:00:00 7,9 7,9 4 2 ENE 1015,7 10 -
13.01.2018 09:00:00 7,8 7,8 5 3 SE 1015,2 17 0,0
13.01.2018 08:00:00 8,2 8,2 5 3 E 1014,5 20 0,0
13.01.2018 07:00:00 8,7 8,7 4 2 SE 1014,1 20 -
13.01.2018 06:00:00 8,9 8,9 2 1 ENE 1014,4 8 1,0
13.01.2018 05:00:00 8,9 8,9 4 2 S 1014,6 6 2,0
13.01.2018 04:00:00 9,0 9,0 4 2 S 1014,7 2,2 -
13.01.2018 03:00:00 9,2 8,9 8 4 S 1014,9 3,7 2,0
13.01.2018 02:00:00 9,6 9,0 8 4 SSE 1014,5 3,5 2,0
13.01.2018 01:00:00 9,1 8,5 5 3 NNE 1015,8 6 -
13.01.2018 00:00:00 9,5 8,1 4 2 NNW 1016,3 - 1,0
12.01.2018 23:00:00 10,4 7,3 4 2 SE 1017,1 15 0,0
12.01.2018 22:00:00 10,2 6,9 2 1 ESE 1018,3 20 -
12.01.2018 21:00:00 10,5 6,3 11 6 SE 1018,2 20 0,0
12.01.2018 20:00:00 10,4 6,3 16 9 SSE 1018,8 20 0,0
12.01.2018 19:00:00 9,7 5,9 5 3 SE 1019,1 20 -
12.01.2018 18:00:00 10,3 5,9 5 3 SE 1019,5 20 0,0
12.01.2018 17:00:00 10,6 5,8 4 2 SE 1020,2 20 0,0
12.01.2018 16:00:00 10,7 5,4 11 6 SE 1021,0 20 -
12.01.2018 15:00:00 10,2 5,2 4 2 WNW 1022,1 20 0,0
12.01.2018 14:00:00 9,1 6,0 8 4 NNW 1022,9 20 0,0
12.01.2018 13:00:00 7,8 4,9 4 2 NNE 1024,2 20 -
12.01.2018 12:00:00 6,7 4,0 5 3 NNW 1025,0 20 0,0
12.01.2018 11:00:00 - - - - - - - -
12.01.2018 10:00:00 4,4 2,6 8 4 ENE 1025,2 20 -
12.01.2018 09:00:00 4,0 2,3 9 5 NE 1025,1 20 0,0
12.01.2018 08:00:00 4,1 2,4 4 2 ENE 1025,0 20 0,0
12.01.2018 07:00:00 3,8 2,2 5 3 NE 1025,3 20 -
12.01.2018 06:00:00 3,7 2,2 4 2 ENE 1025,9 20 0,0
12.01.2018 05:00:00 3,6 2,0 9 5 NE 1026,4 20 0,0
12.01.2018 04:00:00 3,5 2,0 11 6 ENE 1027,1 20 -
12.01.2018 03:00:00 3,4 2,2 2 1 ENE 1027,4 20 0,0
12.01.2018 02:00:00 3,4 2,2 9 5 ENE 1028,0 20 0,0
12.01.2018 01:00:00 4,1 2,6 15 8 ENE 1028,3 20 -
12.01.2018 00:00:00 4,3 2,6 5 3 E 1028,7 20 0,0
11.01.2018 23:00:00 4,6 3,1 9 5 E 1028,6 20 0,0
11.01.2018 22:00:00 5,6 3,6 9 5 ENE 1028,4 20 -
11.01.2018 21:00:00 6,0 4,2 13 7 ENE 1028,3 20 0,0
11.01.2018 20:00:00 7,2 4,2 5 3 E 1028,2 20 0,0
11.01.2018 19:00:00 8,3 4,7 4 2 NNE 1027,6 20 -
11.01.2018 18:00:00 9,8 3,7 5 3 WNW 1027,2 12 0,0
11.01.2018 17:00:00 10,5 3,5 9 5 WNW 1026,6 20 0,0
11.01.2018 16:00:00 10,3 4,6 11 6 W 1026,7 20 -
11.01.2018 15:00:00 10,0 5,6 9 5 W 1026,6 20 0,0
11.01.2018 14:00:00 9,1 6,0 9 5 NW 1026,8 19 0,4
11.01.2018 13:00:00 10,1 7,2 4 2 N 1027,4 20 -
11.01.2018 12:00:00 9,3 7,2 2 1 NW 1027,4 16 0,0
11.01.2018 11:00:00 7,9 6,8 4 2 SSE 1026,6 12 0,0
11.01.2018 10:00:00 5,7 5,3 8 4 SE 1026,4 20 -
11.01.2018 09:00:00 6,1 5,4 8 4 E 1025,8 20 0,2
11.01.2018 08:00:00 6,9 5,0 5 3 NNE 1024,9 19 0,6
11.01.2018 07:00:00 7,1 5,4 5 3 ENE 1023,8 20 -
11.01.2018 06:00:00 8,3 5,0 13 7 W 1023,2 2,4 0,4
11.01.2018 05:00:00 8,1 4,7 8 4 W 1023,2 20 0,2
11.01.2018 04:00:00 8,6 6,0 16 9 W 1023,1 - -
11.01.2018 03:00:00 9,8 4,6 11 6 W 1022,4 19 0,0
11.01.2018 02:00:00 9,6 5,6 15 8 W 1022,3 11 0,0
11.01.2018 01:00:00 9,4 6,5 13 7 W 1022,2 16 -
11.01.2018 00:00:00 8,8 5,7 24 13 W 1021,9 18 0,2
10.01.2018 23:00:00 6,8 6,8 4 2 S 1021,5 12 0,6
10.01.2018 22:00:00 7,0 6,3 5 3 WSW 1021,3 20 -
10.01.2018 21:00:00 7,6 6,8 4 2 S 1020,7 14 0,0
10.01.2018 20:00:00 8,9 6,0 11 6 W 1020,2 8 0,6

tt = temperature
td = dewpoint
ff = wind speed
dd = wind direction
ppp = reduced air pressure
vv = visibility
rr = precipitation

Next stations